Regional Weather Roundup
Issued by NWS Wakefield, VA

Home | Current Version | Previous Version | Text Only | Print | Product List | Glossary On
Versions: 1 2 3 4 5 6 7 8 9 10 11 12 13 14 15 16 17 18 19 20 21 22 23 24 25 26 27 28 29 30 31 32 33 34 35 36 37 38 39 40 41 42 43 44 45 46 47 48 49 50
000
ASUS41 KAKQ 201110
RWRAKQ

REGIONAL WEATHER ROUNDUP
NATIONAL WEATHER SERVICE WAKEFIELD VA
700 AM EDT WED AUG 20 2014

Note: "fair" indicates few or no clouds below 12,000 feet with no
significant weather and/or obstructions to visibility. * = Denotes
station may not report precipitation (e.g., rain,snow,etc.),
thunder or fog.

VAZ042-051-052>054-056-201200-
NORTHERN VIRGINIA

CITY           SKY/WX    TMP DP  RH WIND       PRES   REMARKS
WASH NATIONAL  MOCLDY    73  64  73 SE5       29.97R
DULLES         MOCLDY    70  67  90 S6        29.96R
FORT BELVOIR   MOCLDY    66  65  96 CALM      29.97R
QUANTICO       MOCLDY    72  67  84 S6        29.97R
FREDERICKSBRG* FOG       68  68 100 CALM      29.95R VSB 1/4
STAFFORD*      FOG       66  66 100 CALM      30.00R VSB 1/2
WARRENTON      FOG       69  69 100 CALM      29.96R VSB 1/4
CULPEPER*        N/A    N/A N/A N/A CALM      29.96R FOG
MANASSAS*      NOT AVBL
LEESBURG*      MOCLDY    72  72 100 S3        29.97R
WINCHESTER     CLOUDY    70  68  94 S3        29.95S FOG
$$

VAZ048-049-060>072-079>083-201200-
CENTRAL AND SOUTH CENTRAL VIRGINIA...AND NORTH CENTRAL NORTH CAROLINA

CITY           SKY/WX    TMP DP  RH WIND       PRES   REMARKS
RICHMOND       MOCLDY    71  68  90 N3        29.96R
CHESTERFIELD*  CLOUDY   N/A N/A N/A CALM      29.97R
HANOVER        PTCLDY    66  66 100 CALM      29.98R FOG
TAPPAHANNOCK*  CLEAR     64  62  93 CALM      29.97R FOG
CHARLOTTSVILLE CLOUDY    72  70  93 S5        29.97R FOG
ORANGE*        CLEAR     68  68 100 CALM      29.98R FOG
LOUISA*        FOG       66  66 100 CALM      29.96R VSB 1/2
FARMVILLE*     FOG       72  70  94 CALM      29.95R VSB 1/4
SOUTH HILL*    FOG       72  72 100 N3        30.01R VSB 3/4
ROANOKE RAPIDS FOG       70  70 100 N3        29.95R VSB 1/4
RALEIGH        FOG       72  70  93 CALM      29.95R VSB 1/4
$$

VAZ088>098-201200-
SOUTHEAST VIRGINIA

CITY           SKY/WX    TMP DP  RH WIND       PRES   REMARKS
NORFOLK        CLOUDY    75  68  78 NE8       29.92R
VIRGINIA BEACH MOCLDY    75  69  81 NE9       29.92R
NORFOLK NAVAL  MOCLDY    76  69  79 NE9       29.94R
WEST POINT*    CLEAR     69  66  92 CALM      29.96R
NEWPORT NEWS   PTCLDY    74  69  85 N5        29.94R
LANGLEY AFB    PTCLDY    73  73 100 NE5       29.93R
FORT EUSTIS    PTCLDY    72  72 100 N3        29.93R
WILLIAMSBURG*  CLEAR     72  70  94 CALM      29.96R
FRANKLIN*      CLOUDY    70 N/A N/A CALM      29.94R
WAKEFIELD      CLEAR     69  67  93 CALM      29.95R FOG
$$

VAZ020-022-025-037-045-201200-
WESTERN AND SOUTHWEST VIRGINIA

CITY           SKY/WX    TMP DP  RH WIND       PRES   REMARKS
STAUNTON*      CLOUDY    67  65  91 S3        30.00R FOG
HOT SPRINGS VA NOT AVBL
LYNCHBURG      CLOUDY    70  70 100 CALM      30.00R FOG
DANVILLE       CLOUDY    72  70  93 E3        29.97R
MARTINSVILLE   CLOUDY    71  70  98 CALM      30.01R
ROANOKE        CLOUDY    64  63  96 NW3       30.02R
BLACKSBURG     FOG       66  66 100 CALM      30.06R VSB<1/4
DUBLIN*        FOG       67  67 100 CALM      30.06R VSB 1/4
MARION*        CLOUDY    67  66  96 W7        30.08R FOG
HILLSVILLE*    PTCLDY    63  63 100 SW3       30.07R FOG
RICHLANDS*     SUNNY     69  67  94 CALM      30.05R FOG
WISE*          CLOUDY    68  68 100 SW7       30.07R FOG
ABINGDON*      CLOUDY    67  67 100 CALM      30.04R FOG
$$

MDZ021>025-VAZ099-100-201200-
SOUTHERN MARYLAND AND THE DELMARVA PENINSULA

CITY           SKY/WX    TMP DP  RH WIND       PRES   REMARKS
PATUXENT RIVER PTCLDY    64  62  93 CALM      29.95R
BAY BRIDGE APT   N/A     70  64  83 E5        29.96R
LEONARDTOWN    CLEAR     64  61  88 CALM      29.98R
DOVER          PTCLDY    65  65 100 N2        29.95R
GEORGETOWN     CLEAR     64  60  87 S8        29.97R
EASTON         MOCLDY    66  66 100 CALM      30.00R
CAMBRIDGE      CLEAR     63  59  88 CALM      29.96R
SALISBURY      CLEAR     65  61  87 CALM      29.96R
OCEAN CITY     CLEAR     72  66  81 NE6       29.95R
WALLOPS ISLAND CLEAR     67  64  90 N6        29.95R
ACCOMACK*      CLEAR     64  63  94 NE5       29.94R
$$

NCZ012>017-030>032-201200-
EASTERN NORTH CAROLINA

CITY           SKY/WX    TMP DP  RH WIND       PRES   REMARKS
ELIZABETH CITY PTCLDY    74  72  93 NW7       29.91R
AHOSKIE*       CLOUDY    69  68  97 CALM      29.94R
EDENTON*       CLEAR     70  69  97 N6        29.92R FOG
CURRITUCK*     CLOUDY    76  72  86 N7        29.92R
KILL DEVIL HLS CLOUDY    76  74  93 N6        29.89R
MANTEO         PTCLDY    75  73  94 N6        29.90R
CAPE HATTERAS  MOCLDY    77  75  93 VRB3      29.89R
GOLDSBORO      FOG       72  72 100 NE3       29.92R VSB 1
WASHINGTON     CLOUDY    71  71  99 N5        29.93R VSB 1/2
GREENVILLE     RAIN      72  72 100 CALM      29.95R VSB 1/4
NEW BERN       CLOUDY    75  72  88 N5        29.93R FOG
WILMINGTON     CLEAR     75  73  93 CALM      29.92R
$$

VAZ048-201200-
ELSEWHERE

CITY           SKY/WX    TMP DP  RH WIND       PRES   REMARKS
HARRISBURG PA  CLOUDY    71  63  75 E7        29.94R
BALTIMORE      MOCLDY    67  64  90 CALM      29.96R
ANNAPOLIS      MOCLDY    73  67  81 E7        29.95R
ANDREWS AFB    PTCLDY    65  64  96 S2        29.97R
WILMINGTON DE  CLOUDY    71  66  84 SE3       29.97R
PHILADELPHIA   MOCLDY    71  65  81 SE3       29.97R
WILDWOOD NJ*   PTCLDY    64  61  88 CALM      29.97R
ATLANTIC CITY  MOCLDY    65  63  93 NW3       29.97R
HENDERSON NC   CLOUDY    71  70  95 E3        29.96S FOG
GREENSBORO     FOG       72  70  94 NE6       29.97R VSB 3/4
ROCKY MOUNT    FOG       72  71  97 NE3       29.94R VSB 1/4
FAYETTEVILLE   PTCLDY    74  72  93 N6        29.93R
CHARLOTTE      MOCLDY    67  65  93 CALM      29.97R
$$

VAZ100-201200-
MARINE

STATION/POSITION TIME  TEMP    WIND        PRES    WAVE   SWELL
                       AIR SEA DIR/SP/G            HT/PER HT/PER
                 (UTC) (F)     (DEG/KT/KT) (MB)    (FT/S) (FT/S)
44066 TX TWR #4  1100   72 72   40/ 12/ 14 1013.8R   3/ 5   2/ 6
CAPE MAY NJ      1100   69 79   70/  2/  2 1014.1R
LEWES DE         1100   73 74   70/  7/  7 1014.0F
15NM E FENWICK I 1100   74 75              1013.8R   3/ 6
OCEAN-CITY-INLET 1100   73 75   70/  5/  7 1013.6R
WACHAPREAGUE VA  1100   68 78  320/  2/  3 1013.7R
THOMAS POINT MD  1100   73 77  130/  8/  9 1015.0R
GOOSES REEF MD   1100   73     130/  6/  8 1014.7R
COVE POINT MD    1100   72     120/  6/  7 1014.3R
SOLOMONS ISLAND  1100      79                N/A
BISHOPS HEAD MD  1100   70 76   40/  5/  6 1013.7F
PINEY POINT MD   1100           60/  3/  3   N/A
POTOMAC MD       1100   74      80/  8/ 10 1013.4R
CAMBRIDGE MD     1100   69 78   30/  3/  3 1014.0S
LEWISETTA VA     1100   74 77   90/  6/  8 1014.0R
RAPPAHANNOCK LGT 1100           40/ 10/ 11 1014.3R
STINGRAY PT      1100   75      70/  8/ 10 1014.4R
YORK RVR RNG VA  1100   75      50/ 10/ 12 1013.2R
YORKTOWN VA      1100   73 79   10/  6/  7 1013.4R
JAMESTOWN VA     1100   70      20/  4/  6   N/A
DOMINION TERM VA 1100   75      30/  3/  5 1013.6R
KIPTOPEKE VA     1100      81   30/  5/  6   N/A
CHES BAY BRIDGE  1100   76 77   30/ 12/ 13 1012.7R
CAPE HENRY VA    1100   76      40/ 11/ 12 1012.1R
CHESAPEAKE LGHT  1000   75      40/ 14/ 15 1012.8R
WILLOUBY STN VA  1100   76      40/  4/ 10 1012.3R
S CRANEY ISL VA  1100           10/  7/  8 1013.1R
CAPE HENRY BUOY  1100      76                N/A     3/ 6
1ST LANDING BUOY 1100   76      40/ 10/ 14 1012.9R
CAPE CHARLES BUO 1100      77                N/A     3/ 6   2/ 6
OFFSHORE WE BUOY 1100      76                N/A     4/ 6   2/ 6
64NM E OF VA BCH 1100   77 78   30/ 14/ 16 1011.6R   3/ 6   2/ 9
DUCK PIER NC     1100   77 78   30/ 13/ 14 1011.7R
44056 DUCK FRF   1100                        N/A     3/ 5
OREGON INLET NC  1100   76 81   10/  6/  7 1011.9R
HATTERAS NC      1100   79 82  360/ 10/ 11 1012.2R
DIAMOND SHLS NC  1100   79     320/  8/ 10 1011.6R   3/ 7   3/ 7
CAPE LOOKOUT NC  1000   78     330/  6/  8 1011.7R
$$


USA.gov is the U.S. government's official web portal to all federal, state and local government web resources and services.